Pagina principale
METAR-TAF:

METAR-TAF

Aeroporti :

Brookhaven Airport

Shirley, New York, Stati Uniti

latitudine: 40-49-18N, longitudine: 072-52-08W, altezza: 25 m

Osservazione

Il bollettino è stato emesso 1 ora e 8 minuti fa, alle 00:56 UTC
Vento 4 kt da ovest/sud-ovest
Temperature 9°C
Umidità 66%
Pressione 1018 hPa
Visibilità: 16.1 km
Cielo sereno

METAR: KHWV 170056Z AUTO 24004KT 10SM CLR 09/03 A3007 RMK AO2 SLP183 T00940028

Ora: 22:04 (02:04 UTC)


TAF: mancante

Osservazioni e previsioni meteorologiche di più di 4000 aeroporti (messaggi METAR e TAF).

Le stazioni disponibili sono rappresentate dai dischi gialli e rossi sulla carta.

Puntare il mouse per vedere il nome della stazione.

Clicca sopra per visualizzare le osservazioni e previsioni meteorologiche.

Per cambiare la mappa : fare clic sui pulsanti verdi con una croce nera per ingrandire, il pulsante verde con un trattino per diminuire, o sulla freccia verde per le mappe adiacenti.


METAR-TAF: